Flag for Albania Weather past 2 weeks in Tirana, Albania

Now
70 °F

Passing clouds.


Feels Like: 70 °F
Forecast: 57 / 80 °F
Wind: 5 mph from Northwest

Location: Tirana Airport

Current Time: Sep 17, 2014 at 7:54:06 PM

Latest Report: Sep 17, 2014 at 7:20 PM


Visibility: N/A

Pressure: 29.95 "Hg

Humidity: 69%

Dew point: 59 °F

Location of TiranaLocation

Historic Weather in Tirana — Graph

°F

Tirana temperature yesterday

Maximum temperature yesterday: 77 °F (at 11:50 AM)
Minimum temperature yesterday: 57 °F (at 3:20 AM)
Average temperature yesterday: 66 °F

Past Weeks' High & Low Weather Summary

 TemperatureHumidityPressure
High86 °F (Sep 12, 12:50 PM)94% (Sep 3, 1:50 AM)30.01 "Hg (Sep 3, 1:50 AM)
Low55 °F (Sep 17, 6:20 AM)37% (Sep 17, 2:50 PM)29.65 "Hg (Sep 2, 6:20 PM)
Average70 °F77%29.90 "Hg
* Reported Sep 2 6:20 PM — Sep 17 6:50 PM, Tirana, Weather by CustomWeather, © 2014

Note: Actual official high and low records may vary slightly from our data, if they occured in-between our weather recording intervals... More about our weather records

Advertising

Tirana weather history for previous 24 hours

 ConditionsComfort  
Time TempWeatherWind HumidityBarometerVisibility
6:50 PM
Sep 17
70 °FPassing clouds.6 mph69%29.95 "HgN/A
6:20 PM72 °FScattered clouds.8 mph61%29.95 "HgN/A
5:50 PM75 °FScattered clouds.9 mph50%29.95 "HgN/A
5:20 PM77 °FScattered clouds.9 mph47%29.92 "HgN/A
4:50 PM77 °FScattered clouds.9 mph44%29.92 "HgN/A
4:20 PM77 °FPassing clouds.10 mph42%29.92 "HgN/A
3:50 PM77 °FPassing clouds.9 mph42%29.92 "HgN/A
3:20 PM79 °FPassing clouds.8 mph42%29.92 "HgN/A
2:50 PM81 °FPassing clouds.7 mph37%29.92 "HgN/A
2:20 PM79 °FPassing clouds.6 mph39%29.92 "HgN/A
1:50 PM81 °FPassing clouds.6 mph45%29.92 "HgN/A
1:20 PM81 °FPassing clouds.6 mph42%29.95 "HgN/A
12:50 PM79 °FPassing clouds.6 mph45%29.95 "HgN/A
12:20 PM79 °FPassing clouds.6 mph48%29.95 "HgN/A
11:50 AM79 °FPassing clouds.5 mph51%29.95 "HgN/A
11:20 AM75 °FPassing clouds.2 mph50%29.95 "HgN/A
10:50 AM73 °FSunny.2 mph53%29.95 "Hg10 mi
10:20 AM72 °FSunny.No wind53%29.98 "Hg10 mi
9:50 AM72 °FSunny.No wind61%29.98 "Hg10 mi
9:20 AM70 °FSunny.2 mph69%29.98 "Hg10 mi
8:50 AM66 °FSunny.No wind78%29.95 "Hg10 mi
8:20 AM64 °FSunny.2 mph78%29.95 "Hg10 mi
7:50 AM61 °FSunny.3 mph88%29.95 "Hg10 mi
7:20 AM57 °FPassing clouds.3 mph94%29.95 "HgN/A
6:50 AM55 °FClear.1 mph94%29.95 "Hg10 mi
6:20 AM55 °FClear.2 mph94%29.95 "Hg10 mi
5:50 AM57 °FClear.2 mph88%29.95 "Hg10 mi
5:20 AM57 °FClear.1 mph94%29.95 "Hg10 mi
4:50 AM57 °FClear.No wind94%29.95 "Hg10 mi
4:20 AM57 °FClear.No wind94%29.95 "Hg10 mi
3:50 AM57 °FClear.2 mph94%29.95 "Hg4 mi
3:20 AM57 °FClear.No wind94%29.95 "Hg4 mi
2:50 AM59 °FClear.6 mph88%29.95 "Hg4 mi
2:20 AM59 °FClear.3 mph88%29.95 "Hg4 mi
1:50 AM59 °FClear.5 mph88%29.95 "Hg4 mi
1:20 AM59 °FClear.3 mph88%29.95 "Hg4 mi
12:20 AM59 °FClear.2 mph94%29.95 "Hg10 mi
11:50 PM
Sep 16
61 °FClear.3 mph88%29.95 "Hg10 mi
11:20 PM61 °FClear.3 mph88%29.95 "Hg10 mi
10:50 PM61 °FClear.5 mph88%29.95 "Hg10 mi
10:20 PM63 °FClear.3 mph88%29.95 "Hg10 mi
9:50 PM63 °FClear.3 mph88%29.95 "Hg10 mi
9:20 PM63 °FClear.2 mph83%29.95 "Hg10 mi
8:50 PM64 °FClear.3 mph78%29.95 "Hg10 mi
8:20 PM64 °FClear.No wind78%29.95 "Hg10 mi
7:50 PM66 °FClear.No wind73%29.95 "Hg10 mi
7:20 PM68 °FSunny.3 mph69%29.95 "Hg10 mi
Weather by CustomWeather, © 2014

See weather overviewHow to use our weather pages